RV1CJ-14 Weather Reports


time (UTC)temp
C
wind
direction
speed
KPH
gust
KPH
rain 1hr
cm
rain 24hr
cm
rain mn
cm
humidity
%
barometer
mb
20260502123003 13 162 1.6 4.8 0.00 0.00 0.00 66 1007.2
20260502122003 13 162 1.6 3.2 0.00 0.00 0.00 67 1007.2
20260502121003 13 162 1.6 4.8 0.00 0.00 0.00 68 1007.2
20260502115003 14 162 1.6 6.4 0.00 0.00 0.00 64 1007.2
20260502114003 15 162 1.6 4.8 0.00 0.00 0.00 61 1007.3
20260502113004 16 162 1.6 4.8 0.00 0.00 0.00 58 1007.4
20260502112003 18 162 0.0 4.8 0.00 0.00 0.00 55 1007.1
20260502111003 18 162 0.0 1.6 0.00 0.00 0.00 54 1007.0
20260502110003 18 162 0.0 1.6 0.00 0.00 0.00 55 1007.0
20260502105003 19 162 0.0 3.2 0.00 0.00 0.00 54 1007.1
20260502104003 19 162 0.0 1.6 0.00 0.00 0.00 53 1007.2
20260502103003 19 162 1.6 4.8 0.00 0.00 0.00 52 1007.2
20260502102003 20 162 1.6 4.8 0.00 0.00 0.00 52 1007.2
20260502101003 20 162 0.0 3.2 0.00 0.00 0.00 52 1007.3
20260502091003 19 160 1.6 6.4 0.00 0.00 0.00 52 1007.7
20260502071003 16 0 0.0 0.0 0.00 0.00 0.00 59 1008.8
20260502070003 15 331 0.0 3.2 0.00 0.00 0.00 61 1008.8
20260502065003 15 331 0.0 3.2 0.00 0.00 0.00 61 1008.9
20260502064003 14 331 0.0 3.2 0.00 0.00 0.00 63 1008.9
20260502063003 14 331 0.0 3.2 0.00 0.00 0.00 62 1008.9
20260502062003 13 331 1.6 4.8 0.00 0.00 0.00 64 1009.2
20260502061003 13 331 1.6 6.4 0.00 0.00 0.00 65 1009.3
20260502060003 12 331 1.6 4.8 0.00 0.00 0.00 66 1009.4
20260502055003 12 331 1.6 3.2 0.00 0.00 0.00 66 1009.3
20260502054003 12 331 1.6 3.2 0.00 0.00 0.00 67 1009.3
20260502053003 12 331 1.6 4.8 0.00 0.00 0.00 66 1009.3
20260502052003 12 331 0.0 3.2 0.00 0.00 0.00 66 1009.3
20260502051003 12 331 1.6 3.2 0.00 0.00 0.00 66 1009.3
20260502050003 12 331 0.0 3.2 0.00 0.00 0.00 67 1009.3
20260502045003 11 0 0.0 0.0 0.00 0.00 0.00 69 1009.2
20260502044003 11 0 0.0 0.0 0.00 0.00 0.00 70 1009.1
20260502043003 11 0 0.0 0.0 0.00 0.00 0.00 70 1009.2
20260502042003 10 0 0.0 0.0 0.00 0.00 0.00 71 1009.3
20260502041003 10 0 0.0 0.0 0.00 0.00 0.00 73 1009.4
20260502040003 9 0 0.0 0.0 0.00 0.00 0.00 74 1009.5
20260502035003 9 0 0.0 0.0 0.00 0.00 0.00 75 1009.5
20260502034003 8 0 0.0 0.0 0.00 0.00 0.00 75 1009.6
20260502033003 8 0 0.0 0.0 0.00 0.00 0.00 75 1009.7
20260502032003 8 0 0.0 0.0 0.00 0.00 0.00 76 1009.8
20260502031003 8 0 0.0 0.0 0.00 0.00 0.00 76 1009.8
20260502030003 8 0 0.0 0.0 0.00 0.00 0.00 76 1009.9
20260502025003 8 0 0.0 0.0 0.00 0.00 0.00 76 1010.0
20260502024003 8 0 0.0 0.0 0.00 0.00 0.00 76 1010.1
20260502023003 8 0 0.0 0.0 0.00 0.00 0.00 76 1010.2
20260502022003 8 0 0.0 0.0 0.00 0.00 0.00 75 1010.3
20260502021003 8 0 0.0 0.0 0.00 0.00 0.00 75 1010.3
20260502020003 8 0 0.0 0.0 0.00 0.00 0.00 75 1010.3
20260502015003 8 0 0.0 0.0 0.00 0.00 0.00 75 1010.4
20260502014003 8 0 0.0 0.0 0.00 0.00 0.00 75 1010.4
20260502013003 8 0 0.0 0.0 0.00 0.00 0.00 75 1010.5
20260502012003 8 0 0.0 0.0 0.00 0.00 0.00 75 1010.6
20260502011003 8 0 0.0 0.0 0.00 0.00 0.00 75 1010.6
20260502010003 8 0 0.0 0.0 0.00 0.00 0.00 74 1010.6
20260502005003 8 0 0.0 0.0 0.00 0.00 0.00 74 1010.6
20260502004003 8 0 0.0 0.0 0.00 0.00 0.00 74 1010.6
20260502003003 8 0 0.0 0.0 0.00 0.00 0.00 74 1010.7
20260502002003 9 0 0.0 0.0 0.00 0.00 0.00 73 1010.7
20260502001003 9 0 0.0 0.0 0.00 0.00 0.00 73 1010.7
20260502000003 9 0 0.0 0.0 0.00 0.00 0.00 72 1010.9
20260501235003 9 0 0.0 0.0 0.00 0.00 0.00 72 1010.9
20260501234003 9 0 0.0 0.0 0.00 0.00 0.00 72 1011.0
20260501233003 9 0 0.0 0.0 0.00 0.00 0.00 72 1011.0
20260501232003 9 0 0.0 0.0 0.00 0.00 0.00 72 1011.0
20260501231003 9 0 0.0 0.0 0.00 0.00 0.00 72 1011.1
20260501230003 10 0 0.0 0.0 0.00 0.00 0.00 72 1011.1
20260501225003 10 0 0.0 0.0 0.00 0.00 0.00 73 1011.1
20260501224003 10 0 0.0 0.0 0.00 0.00 0.00 73 1011.2
20260501223003 10 0 0.0 0.0 0.00 0.00 0.00 72 1011.2
20260501222003 10 0 0.0 0.0 0.00 0.00 0.00 72 1011.3
20260501221003 10 0 0.0 0.0 0.00 0.00 0.00 72 1011.3
20260501220003 10 0 0.0 0.0 0.00 0.00 0.00 73 1011.4
20260501215003 10 0 0.0 0.0 0.00 0.00 0.00 74 1011.4
20260501214003 10 0 0.0 0.0 0.00 0.00 0.00 74 1011.8
20260501213003 10 0 0.0 0.0 0.00 0.00 0.00 75 1011.9
20260501212003 10 0 0.0 0.0 0.00 0.00 0.00 75 1011.9
20260501211003 10 0 0.0 0.0 0.00 0.00 0.00 75 1012.0
20260501210003 10 0 0.0 0.0 0.00 0.00 0.00 76 1012.0
20260501205003 10 0 0.0 0.0 0.00 0.00 0.00 76 1012.0
20260501204003 10 0 0.0 0.0 0.00 0.00 0.00 77 1012.1
20260501203003 10 0 0.0 0.0 0.00 0.00 0.00 78 1012.3
20260501202003 9 0 0.0 0.0 0.00 0.00 0.00 78 1012.3
20260501201003 9 0 0.0 0.0 0.00 0.00 0.00 78 1012.3
20260501200003 9 0 0.0 0.0 0.00 0.00 0.00 78 1012.4
20260501195003 9 0 0.0 0.0 0.00 0.00 0.00 78 1012.4
20260501194003 9 0 0.0 0.0 0.00 0.00 0.00 77 1012.6
20260501193003 9 0 0.0 0.0 0.00 0.00 0.00 77 1012.7
20260501192003 10 0 0.0 0.0 0.00 0.00 0.00 77 1012.8
20260501191003 10 0 0.0 0.0 0.00 0.00 0.00 77 1012.8
20260501190003 10 0 0.0 0.0 0.00 0.00 0.00 76 1012.8
20260501184003 10 0 0.0 0.0 0.00 0.00 0.00 75 1012.9
20260501183003 10 0 0.0 0.0 0.00 0.00 0.00 74 1013.0
20260501182003 10 0 0.0 0.0 0.00 0.00 0.00 74 1013.0
20260501181003 11 0 0.0 0.0 0.00 0.00 0.00 73 1013.0
20260501180003 11 0 0.0 0.0 0.00 0.00 0.00 72 1013.0
20260501175003 11 0 0.0 0.0 0.00 0.00 0.00 72 1012.9
20260501174003 12 0 0.0 0.0 0.00 0.00 0.00 71 1012.9
20260501173003 12 0 0.0 0.0 0.00 0.00 0.00 70 1012.9
20260501172003 12 0 0.0 0.0 0.00 0.00 0.00 70 1012.9
20260501171003 12 0 0.0 0.0 0.00 0.00 0.00 70 1012.9
20260501170004 12 0 0.0 0.0 0.00 0.00 0.00 69 1012.9
20260501165003 12 0 0.0 0.0 0.00 0.00 0.00 69 1013.0
20260501164003 12 0 0.0 0.0 0.00 0.00 0.00 69 1013.1
20260501163003 12 331 0.0 1.6 0.00 0.00 0.00 68 1013.1
20260501162003 12 331 0.0 1.6 0.00 0.00 0.00 68 1013.1
20260501161003 12 0 0.0 0.0 0.00 0.00 0.00 69 1013.4
20260501160003 12 0 0.0 0.0 0.00 0.00 0.00 69 1013.4
20260501155003 12 331 0.0 1.6 0.00 0.00 0.00 69 1013.5
20260501154003 12 331 0.0 3.2 0.00 0.00 0.00 69 1013.6
20260501153003 12 331 1.6 3.2 0.00 0.00 0.00 69 1013.8
20260501152003 12 331 0.0 3.2 0.00 0.00 0.00 69 1013.8
20260501151003 12 331 0.0 1.6 0.00 0.00 0.00 67 1014.0
20260501150004 13 331 0.0 1.6 0.00 0.00 0.00 66 1014.1
20260501145003 13 331 0.0 4.8 0.00 0.00 0.00 65 1014.1
20260501144003 13 331 0.0 3.2 0.00 0.00 0.00 63 1014.1
20260501143003 14 331 0.0 3.2 0.00 0.00 0.00 63 1014.2
20260501142003 14 331 0.0 3.2 0.00 0.00 0.00 63 1014.2